Notices

What's New in latest Release from April 7th, 2021:

- Updated Glossary, including Speed of Maximum Gust, and Total Hourly Precipitation

- Updated national and regional climate services offices contacts and prices information

- Addition of station inventory lists for 1981-2010, 1971-2000, and 1961-1990 Normals.

If you haven't already, please take our survey and provide feedback about our website: https://eccc.sondage-survey.ca/f/LanguageSelection.aspx?s=442ca660-fcf1-47c0-95a9-59707d6fd709

Hourly Data Report for October 07, 2019

CORAL HARBOUR A
NUNAVUT
Current Station Operator: NAVCAN

64°11'36.000" N
83°21'34.000" W
62.20 m
2301002
71915
YZS

Download Data

Hourly Data (October 2019)
Hourly Data Report for October 7, 2019
TIME
LST
Temp Definition
°C
Dew Point Definition
°C
Rel Hum Definition
%
Precip. Amount Definition
mm

Wind Dir Definition
10's deg

Wind Spd Definition
km/h
Visibility Definition
km
Stn Press Definition
kPa
Hmdx Definition


Wind Chill Definition


Weather Definition


00:00 1.2 0.1 92   4 25 19.3 98.42     Rain
01:00 1.2 0.1 93   4 22 24.1 98.43     Rain
02:00 1.3 0.2 92   4 23 24.1 98.43     LegendNANA
03:00 1.5 -0.3 88   5 26 24.1 98.42     LegendNANA
04:00 1.3 -0.7 87   5 34 24.1 98.42     Cloudy
05:00 1.0 -1.1 85   4 34 24.1 98.45     LegendNANA
06:00 0.9 -1.4 85   4 39 24.1 98.49     LegendNANA
07:00 0.8 -1.5 84   4 32 24.1 98.54     Cloudy
08:00 0.8 -1.7 83   4 31 24.1 98.60     LegendNANA
09:00 0.6 -1.7 84   2 32 24.1 98.64     Snow
10:00 0.7 -1.9 83   4 35 19.3 98.68     Snow
11:00 0.4 -1.6 86   3 28 16.1 98.73     Snow
12:00 0.6 -1.6 85   3 29 16.1 98.77     Snow
13:00 1.1 -1.9 80   3 27 24.1 98.82     Snow
14:00 1.2 -1.9 80   4 30 24.1 98.82     Snow
15:00 1.0 -1.8 81   4 25 24.1 98.85     Snow
16:00 0.8 -2.0 81   4 29 24.1 98.91     Cloudy
17:00 0.5 -2.0 83   34 17 24.1 99.03     LegendNANA
18:00 0.2 -2.7 81   29 7 24.1 99.10     LegendNANA
19:00 0.0 -2.7 82   33 5 24.1 99.16   -2 Mostly Cloudy
20:00 0.0 -2.8 81   3 4 24.1 99.24   -1 LegendNANA
21:00 -0.4 -2.7 85   4 9 24.1 99.28   -4 LegendNANA
22:00 -0.2 -2.7 84   4 5 24.1 99.30   -2 Mainly Clear
23:00 0.0 -2.9 81   1 4 24.1 99.37   -1 LegendNANA

Notes on Data Quality.

Legend

  • E = Estimated
  • M = Missing
  • NA = Not Available*
  • [empty] = Indicates an unobserved value
Date modified: